This is the latest recevied weather packets stored in our database for station/object OM6ACB-6. If no packets are shown the sender has not sent any weather packets the latest 10 day(s).
| Time | Temp. | Humidity | Pressure | Rain* | Wind** | Luminosity | Snow |
|---|---|---|---|---|---|---|---|
| 1788307423 | 7.78° C | 59% | 1023.7 hPa | 0 mm | - | - | - |
| 1788306822 | 7.78° C | 58% | 1023.7 hPa | 0 mm | - | - | - |
| 1788306222 | 7.78° C | 55% | 1023.7 hPa | 0 mm | - | - | - |
| 1788305622 | 8.33° C | 54% | 1023.7 hPa | 0 mm | - | - | - |
| 1788305021 | 8.33° C | 53% | 1023.7 hPa | 0 mm | - | - | - |
| 1788304421 | 8.33° C | 50% | 1023.5 hPa | 0 mm | - | - | - |
| 1788303821 | 8.33° C | 45% | 1023.5 hPa | 0 mm | - | - | - |
| 1788303221 | 8.33° C | 43% | 1023.7 hPa | 0 mm | - | - | - |
| 1788302620 | 8.89° C | 41% | 1023.8 hPa | 0 mm | - | - | - |
| 1788302020 | 8.89° C | 40% | 1023.7 hPa | 0 mm | - | - | - |
| 1788301420 | 8.89° C | 37% | 1023.7 hPa | 0 mm | - | - | - |
| 1788300820 | 8.89° C | 37% | 1023.7 hPa | 0 mm | - | - | - |
| 1788300219 | 9.44° C | 32% | 1023.6 hPa | 0 mm | - | - | - |
| 1788299619 | 10° C | 27% | 1023.7 hPa | 0 mm | - | - | - |
| 1788299019 | 10° C | 32% | 1023.7 hPa | 0 mm | - | - | - |
| 1788298418 | 10° C | 30% | 1023.5 hPa | 0 mm | - | - | - |
| 1788297818 | 10° C | 28% | 1023.6 hPa | 0 mm | - | - | - |
| 1788297218 | 10° C | 27% | 1023.6 hPa | 0 mm | - | - | - |
| 1788296618 | 10.56° C | 27% | 1023.6 hPa | 0 mm | - | - | - |
| 1788296017 | 10.56° C | 27% | 1023.5 hPa | 0 mm | - | - | - |
| 1788295417 | 11.11° C | 27% | 1023.6 hPa | 0 mm | - | - | - |
| 1788294817 | 12.22° C | 27% | 1023.6 hPa | 0 mm | - | - | - |
| 1788294216 | 11.67° C | 27% | 1023.6 hPa | 0 mm | - | - | - |
| 1788293616 | 12.22° C | 27% | 1023.6 hPa | 0 mm | - | - | - |
| 1788293016 | 12.22° C | 26% | 1023.7 hPa | 0 mm | - | - | - |
* Rain latest hour (hover to see other rain measurements)
** Current wind speed in m/s (hover to see current wind gust speed)